Regional Weather Roundup
Issued by NWS

Home | Current Version | Previous Version | Graphics & Text | Print | Product List | Glossary On
Versions: 1 2 3 4 5 6 7 8 9 10 11 12 13 14 15 16 17 18 19 20 21 22 23 24 25 26 27 28 29 30 31 32 33 34 35 36 37 38 39 40 41 42 43 44 45 46 47 48 49 50
951
ASUS43 KMPX 142210
RWRMN
WEATHER ROUNDUP FOR MINNESOTA
NATIONAL WEATHER SERVICE TWIN CITIES/CHANHASSEN MN
400 PM CST SUN FEB 14 2016


NOTE: "FAIR" INDICATES FEW OR NO CLOUDS BELOW 12,000 FEET WITH NO
SIGNIFICANT WEATHER AND/OR OBSTRUCTIONS TO VISIBILITY. N/A MEANS
CURRENT SKY AND/OR WEATHER CONDITIONS ARE NOT AVAILABLE.

MNZ060>063-068>070-142300-
   Twin Cities Metro

CITY           SKY/WX    TMP DP  RH WIND       PRES   REMARKS
TWIN CITIES    LGT SNOW  19  12  74 S13       29.93R WCI   6
ST PAUL        LGT SNOW  19  13  77 SE12      29.95R WCI   7
CRYSTAL        LGT SNOW  19  13  77 SE12      29.91R WCI   7
BLAINE         LGT SNOW  19  12  73 SE16      29.91S WCI   5
LAKEVILLE      FLURRIES  18  12  79 S12       29.92R WCI   5
EDEN PRAIRIE   LGT SNOW  19  11  70 S15       29.91R WCI   5
SOUTH ST PAUL  LGT SNOW  19  13  76 SE12      29.94R WCI   7
LAKE ELMO      FLURRIES  19  12  73 S15       29.94S WCI   5
$$
MNZ001>005-007-008-013>017-022>024-027-028-142300-
   Northwest Minnesota

CITY           SKY/WX    TMP DP  RH WIND       PRES   REMARKS
BEMIDJI        LGT SNOW  14  10  85 S9G17     29.77S WCI   2
HALLOCK        LGT SNOW  18  16  93 S15       29.73S WCI   3
ROSEAU         LGT SNOW  16  12  86 S10       29.75R WCI   3
WARROAD        LGT SNOW  16  10  79 S9        29.76S WCI   4
THIEF RVR FALL CLOUDY    16  14  93 S14       29.75S VSB 1   WCI   1
CROOKSTON      CLOUDY    18  16  93 S18G24    29.77S FOG     WCI   2
FOSSTON        LGT SNOW  14  10  85 S16       29.75F WCI  -2
DETROIT LAKES  MIX PCPN  18  14  86 S15       29.77S WCI   3
MOORHEAD       CLOUDY    18  14  86 S15       29.78S WCI   3
PARK RAPIDS    LGT SNOW  16  11  80 S10       29.78S WCI   4
MAHNOMEN       CLOUDY    16  12  86 S15       29.75S WCI   1
$$
MNZ006-009>011-018-025>026-142300-
   North Central Minnesota

CITY           SKY/WX    TMP DP  RH WIND       PRES   REMARKS
BAUDETTE       LGT SNOW  14   7  73 S10       29.76F WCI   1
FLAG ISLAND    LGT SNOW  12   9  85 S18       29.75S WCI  -5
INTL FALLS     SNOW      13   8  81 S7        29.81F VSB 1/2 WCI   3
WASKISH        LGT SNOW  16  10  79 SE7       29.79S WCI   6
BIG FORK       CLOUDY    14   9  79 SE10G16   29.81S VSB 3/4 WCI   1
LONGVILLE      LGT SNOW  16  10  79 SE8       29.82S WCI   5
GRAND RAPIDS   CLOUDY    12   9  85 SE13      29.83S WCI  -3
CRANE LAKE     CLOUDY    12  10  92 S8        29.86S VSB 1   WCI   1
ORR            LGT SNOW  12   7  79 SE8G17    29.80F VSB 1   WCI   1
COOK           LGT SNOW  12   9  85 SE7       29.84S WCI   2
WALKER         LGT SNOW  15  10  83 S8        29.79F WCI   3
$$
MNZ012-019>021-037-142300-
   Northeast Minnesota

CITY           SKY/WX    TMP DP  RH WIND       PRES   REMARKS
DULUTH         FLURRIES  14   5  67 SE9       29.87F WCI   2
ELY            LGT SNOW  12   9  85 S14       29.85F WCI  -3
HIBBING        SNOW      11   8  88 S8        29.85R VSB 1/2 WCI  -1
EVELETH        LGT SNOW  14   9  79 S14       29.86S WCI  -1
DULUTH HARBOR  CLOUDY    18   9  68 S10       29.96S WCI   6
TWO HARBORS    LGT SNOW  18  10  73 S3        29.90F
SILVER BAY     LGT SNOW  16   9  73 CALM      29.91F
GRAND MARAIS     N/A     22   9  57 S9        29.98F WCI  12
G MARAIS ARPRT CLOUDY    12   1  62 S9        29.88F WCI   0
$$
MNZ029>031-032-039>041-046>048-054>057-064-142300-
   West Central Minnesota

CITY           SKY/WX    TMP DP  RH WIND       PRES   REMARKS
FERGUS FALLS   DRIZZLE   18  12  79 S14       29.83S WCI   4
WHEATON        MOSUNNY   21  16  79 SE10      29.82S WCI  10
MORRIS         CLOUDY    19  14  79 S12       29.81S WCI   7
ALEXANDRIA     CLOUDY    17  13  84 S12       29.82R WCI   4
ELBOW LAKE     CLOUDY    17  14  88 S16       29.81F FOG     WCI   2
WADENA         LGT SNOW  16  10  79 S8        29.80S WCI   5
GLENWOOD       LGT SNOW  18  14  86 S13       29.83S WCI   4
APPLETON       CLOUDY    21  16  79 S8        29.82F WCI  12
BENSON         CLOUDY    19  14  79 CALM      29.83F
ORTONVILLE     CLOUDY    19  14  79 S7        29.80F WCI  10
MADISON        PTSUNNY   21  16  79 S8        29.82F WCI  12
WILLMAR        CLOUDY    21  16  79 S3        29.86S
$$
MNZ033>034-036-042>043-049>051-058-059-142300-
   Central Minnesota

CITY           SKY/WX    TMP DP  RH WIND       PRES   REMARKS
ST CLOUD       LGT SNOW  18  13  80 S13       29.88R VSB 3/4 WCI   5
SAUK CENTRE    LGT SNOW  17  14  86 S12       29.85S WCI   4
PAYNESVILLE    LGT SNOW  19  15  83 S9G16     29.86R WCI   8
AITKIN         LGT SNOW  18   9  68 SE7       29.84S WCI   8
PINE RIVER     CLOUDY    16  12  86 S9        29.86S FOG     WCI   4
BRAINERD       LGT SNOW  16  12  84 S13       29.85S VSB 1   WCI   2
STAPLES        LGT SNOW  16  10  79 S14       29.82S WCI   1
LONG PRAIRIE   FLURRIES  18  12  79 SE13      29.83S WCI   4
LITTLE FALLS   LGT SNOW  19  14  79 S9        29.87R WCI   9
LITCHFIELD     LGT SNOW  19  18  93 SE7       29.87S WCI  10
BUFFALO        LGT SNOW  19  13  79 SE6       29.91S WCI  11
MAPLE LAKE     LGT SNOW  20  15  83 S9        29.90S VSB 3/4 WCI   9
$$
MNZ037-044-045-052-053-142300-
   East Central Minnesota

CITY           SKY/WX    TMP DP  RH WIND       PRES   REMARKS
PRINCETON      FLURRIES  19  12  73 SE12G17   29.89R WCI   7
MORA           LGT SNOW  18  12  79 S9        29.91S WCI   6
CAMBRIDGE      FLURRIES  19  10  68 S9G16     29.89S WCI   9
RUSH CITY      CLOUDY    18  11  74 SE9       29.91F WCI   7
MOOSE LAKE     CLOUDY    18   7  62 S6G17     29.87F WCI   9
HINCKLEY       FLURRIES  19  12  73 SE9       29.91S WCI   9
CLOQUET        CLOUDY    16   5  62 S9        29.88S WCI   4
MCGREGOR       CLOUDY    18  10  73 SE8       29.87R WCI   7
$$
MNZ071>073-080-081-089-090-097-098-142300-
   Southwest Minnesota

CITY           SKY/WX    TMP DP  RH WIND       PRES   REMARKS
MONTEVIDEO     CLOUDY    21  16  79 SW9       29.85S WCI  11
GRANITE FALLS  CLOUDY    22  17  79 S9        29.86R WCI  12
CANBY          CLOUDY    25  19  78 SW8       29.83R WCI  16
MARSHALL       CLOUDY    21  15  78 S10       29.83S WCI  10
REDWOOD FALLS  CLOUDY    20  14  77 S15       29.85F WCI   6
OLIVIA         LGT SNOW  21  16  79 S10       29.85S WCI  10
PIPESTONE      CLOUDY    21  12  68 SW9       29.79R WCI  11
WINDOM         CLOUDY    19  14  79 S6        29.83S WCI  11
WORTHINGTON    CLOUDY    18  12  79 S7        29.82S WCI   8
JACKSON        CLOUDY    21  14  73 S9        29.84R WCI  11
TRACY          PTSUNNY   21  16  81 S8        29.82S WCI  12
SLAYTON        CLOUDY    19  17  92 S8        29.80F WCI   9
$$
MNZ065>067-074>077-082>085-091>093-142300-
   South Central Minnesota

CITY           SKY/WX    TMP DP  RH WIND       PRES   REMARKS
MANKATO        CLOUDY    19  12  73 S12       29.90R WCI   7
NEW ULM        LGT SNOW  19  14  79 SE12      29.87F WCI   7
ST JAMES       LGT SNOW  21  18  86 SE12      29.87F WCI   9
FAIRMONT       CLOUDY    19  12  73 SE13      29.85F WCI   7
GLENCOE        LGT SNOW  20  17  88 SE8       29.89S WCI  10
FARIBAULT      CLOUDY    18  12  79 SE15      29.92R WCI   3
OWATONNA       LGT SNOW  18  10  73 SE17      29.91R WCI   2
WASECA         FLURRIES  19  14  79 SE12G20   29.91R WCI   7
ALBERT LEA     LGT SNOW  18  14  86 SE15      29.89R WCI   3
$$
MNZ078>079-086>088-094>096-142300-
   Southeast Minnesota

CITY           SKY/WX    TMP DP  RH WIND       PRES   REMARKS
ROCHESTER      CLOUDY    16  10  77 SE16      29.91R BLWGSNOWWCI   1
RED WING       CLOUDY    19  10  68 S10       29.95S WCI   8
STANTON        LGT SNOW  20  12  72 SE9       29.92R WCI   9
DODGE CENTER   LGT SNOW  16  12  86 SE16      29.90R WCI   0
WINONA         FLURRIES  21  14  73 SE9       29.99S WCI  11
AUSTIN         FLURRIES  18  12  79 SE10G16   29.91R WCI   6
PRESTON        FLURRIES  16  10  77 SE12G18   29.92S WCI   3
$$
ABBREVIATIONS USED IN REMARKS
   TC - TEMPERATURES IN CELSIUS
  WCI - WIND CHILL INDEX
   HX - HEAT INDEX
  VSB - VISIBILITY
$$




USA.gov is the U.S. government's official web portal to all federal, state and local government web resources and services.